SWR5TH LSZH-LSGG

Flight info

Callsign SWR5TH
Flight time 0h 30m
Altitude 18000
Route VEBIT T50 ROTOS Z669 ULMES
Aircraft A320/M-SDE3FGHIRWY/LB1

Departure

Time 2026-05-05 20:29
Airport Zürich Airport (LSZH)

Arrival

Time 2026-05-05 20:59
Airport Geneva International Airport (LSGG)
Time Latitude Longitude Altitude Speed Heading
2026-05-05 20:02 47.45350 8.55755 1407 ft 0 kts
2026-05-05 20:16 47.45341 8.55754 1412 ft 4 kts
2026-05-05 20:16 47.45314 8.55750 1411 ft 4 kts
2026-05-05 20:16 47.45287 8.55751 1407 ft 4 kts 350°
2026-05-05 20:16 47.45265 8.55763 1410 ft 4 kts 302°
2026-05-05 20:17 47.45261 8.55774 1408 ft 0 kts 276°
2026-05-05 20:21 47.45262 8.55763 1409 ft 5 kts 276°
2026-05-05 20:21 47.45268 8.55691 1409 ft 7 kts 277°
2026-05-05 20:21 47.45273 8.55623 1413 ft 6 kts 276°
2026-05-05 20:22 47.45320 8.55548 1409 ft 13 kts 334°
2026-05-05 20:22 47.45397 8.55494 1409 ft 12 kts 335°
2026-05-05 20:22 47.45476 8.55440 1406 ft 12 kts 336°
2026-05-05 20:22 47.45554 8.55388 1402 ft 13 kts 335°
2026-05-05 20:23 47.45634 8.55337 1404 ft 10 kts 351°
2026-05-05 20:23 47.45670 8.55405 1401 ft 15 kts 95°
2026-05-05 20:23 47.45660 8.55558 1409 ft 15 kts 96°
2026-05-05 20:23 47.45649 8.55699 1405 ft 13 kts 96°
2026-05-05 20:24 47.45642 8.55814 1410 ft 10 kts 95°
2026-05-05 20:24 47.45637 8.55895 1409 ft 6 kts 96°
2026-05-05 20:24 47.45628 8.55998 1410 ft 13 kts 96°
2026-05-05 20:24 47.45619 8.56125 1411 ft 12 kts 96°
2026-05-05 20:25 47.45634 8.56256 1412 ft 16 kts 37°
2026-05-05 20:25 47.45755 8.56284 1415 ft 17 kts
2026-05-05 20:25 47.45865 8.56302 1414 ft 11 kts
2026-05-05 20:25 47.45939 8.56313 1413 ft 11 kts
2026-05-05 20:26 47.46012 8.56325 1411 ft 8 kts
2026-05-05 20:26 47.46014 8.56325 1411 ft 0 kts
2026-05-05 20:27 47.46061 8.56335 1411 ft 9 kts 17°
2026-05-05 20:27 47.46119 8.56409 1411 ft 12 kts 47°
2026-05-05 20:27 47.46158 8.56415 1413 ft 6 kts 307°
2026-05-05 20:27 47.46180 8.56377 1409 ft 0 kts 317°
2026-05-05 20:28 47.46201 8.56349 1409 ft 21 kts 318°
2026-05-05 20:28 47.46523 8.55909 1396 ft 100 kts 317°
2026-05-05 20:28 47.47192 8.54996 1388 ft 159 kts 317°
2026-05-05 20:29 47.48049 8.53839 1861 ft 166 kts 316°
2026-05-05 20:29 47.48913 8.52686 2591 ft 168 kts 315°
2026-05-05 20:29 47.49873 8.51590 3038 ft 187 kts 327°
2026-05-05 20:29 47.51077 8.50595 3354 ft 209 kts 326°
2026-05-05 20:30 47.52321 8.49386 3865 ft 216 kts 312°
2026-05-05 20:30 47.53188 8.47607 4589 ft 212 kts 289°
2026-05-05 20:30 47.53520 8.45521 5425 ft 207 kts 268°
2026-05-05 20:30 47.53296 8.43442 6224 ft 205 kts 248°
2026-05-05 20:31 47.52691 8.41531 7018 ft 204 kts 244°
2026-05-05 20:31 47.51956 8.39756 7712 ft 208 kts 227°
2026-05-05 20:31 47.50757 8.38497 8306 ft 222 kts 205°
2026-05-05 20:31 47.49170 8.37881 8663 ft 249 kts 195°
2026-05-05 20:32 47.47414 8.37317 9178 ft 265 kts 194°
2026-05-05 20:32 47.45591 8.36735 9993 ft 271 kts 194°
2026-05-05 20:32 47.43685 8.36126 10397 ft 292 kts 194°
2026-05-05 20:32 47.41636 8.35458 10837 ft 308 kts 196°
2026-05-05 20:33 47.39667 8.34207 11540 ft 312 kts 215°
2026-05-05 20:33 47.38104 8.31987 12339 ft 315 kts 234°
2026-05-05 20:33 47.37028 8.29164 13219 ft 316 kts 241°
2026-05-05 20:33 47.36004 8.26274 13977 ft 319 kts 241°
2026-05-05 20:34 47.34966 8.23356 14646 ft 323 kts 241°
2026-05-05 20:34 47.33912 8.20394 15304 ft 327 kts 241°
2026-05-05 20:34 47.32859 8.17438 15972 ft 331 kts 241°
2026-05-05 20:34 47.31781 8.14410 16622 ft 335 kts 241°
2026-05-05 20:35 47.30690 8.11345 17284 ft 339 kts 241°
2026-05-05 20:35 47.29587 8.08250 17941 ft 343 kts 241°
2026-05-05 20:35 47.28469 8.05117 18549 ft 346 kts 241°
2026-05-05 20:35 47.27343 8.01965 18835 ft 349 kts 241°
2026-05-05 20:36 47.26330 7.98740 18907 ft 341 kts 246°
2026-05-05 20:36 47.25449 7.95564 18914 ft 331 kts 246°
2026-05-05 20:36 47.24594 7.92476 18914 ft 329 kts 246°
2026-05-05 20:36 47.23726 7.89358 18915 ft 328 kts 246°
2026-05-05 20:37 47.22858 7.86254 18918 ft 328 kts 246°
2026-05-05 20:37 47.21984 7.83148 18913 ft 328 kts 245°
2026-05-05 20:37 47.21109 7.80049 18916 ft 328 kts 245°
2026-05-05 20:37 47.20235 7.76952 18906 ft 328 kts 245°
2026-05-05 20:38 47.19345 7.73859 18912 ft 327 kts 243°
2026-05-05 20:38 47.18165 7.71001 18907 ft 326 kts 231°
2026-05-05 20:38 47.16759 7.68398 18914 ft 326 kts 231°
2026-05-05 20:38 47.15351 7.65786 18910 ft 326 kts 231°
2026-05-05 20:39 47.13962 7.63203 18907 ft 326 kts 231°
2026-05-05 20:39 47.12555 7.60592 18910 ft 326 kts 231°
2026-05-05 20:39 47.11144 7.57981 18912 ft 326 kts 230°
2026-05-05 20:39 47.09729 7.55371 18906 ft 326 kts 230°
2026-05-05 20:40 47.08317 7.52768 18908 ft 326 kts 230°
2026-05-05 20:40 47.06903 7.50165 18909 ft 326 kts 230°
2026-05-05 20:40 47.05492 7.47569 18916 ft 326 kts 230°
2026-05-05 20:40 47.04076 7.44962 18922 ft 326 kts 230°
2026-05-05 20:41 47.02680 7.42395 18922 ft 326 kts 230°
2026-05-05 20:41 47.01264 7.39793 18924 ft 326 kts 230°
2026-05-05 20:41 46.99847 7.37194 18938 ft 326 kts 230°
2026-05-05 20:41 46.98430 7.34601 18944 ft 325 kts 230°
2026-05-05 20:42 46.97012 7.32014 18934 ft 325 kts 230°
2026-05-05 20:42 46.95598 7.29439 18937 ft 324 kts 230°
2026-05-05 20:42 46.94199 7.26893 18938 ft 324 kts 230°
2026-05-05 20:42 46.92787 7.24321 18937 ft 324 kts 230°
2026-05-05 20:43 46.91383 7.21760 18902 ft 318 kts 230°
2026-05-05 20:43 46.90012 7.19261 18657 ft 311 kts 230°
2026-05-05 20:43 46.88668 7.16816 18420 ft 305 kts 230°
2026-05-05 20:43 46.87343 7.14406 18177 ft 303 kts 230°
2026-05-05 20:44 46.86025 7.12008 17912 ft 301 kts 230°
2026-05-05 20:44 46.84735 7.09661 17664 ft 298 kts 230°
2026-05-05 20:44 46.83442 7.07316 17369 ft 293 kts 230°
2026-05-05 20:44 46.82167 7.05012 17023 ft 290 kts 230°
2026-05-05 20:45 46.79638 7.00450 16278 ft 288 kts 230°
2026-05-05 20:45 46.78400 6.98212 15912 ft 287 kts 230°
2026-05-05 20:45 46.77148 6.95946 15540 ft 286 kts 230°
2026-05-05 20:46 46.75900 6.93689 15191 ft 285 kts 230°
2026-05-05 20:46 46.74652 6.91436 14827 ft 285 kts 230°
2026-05-05 20:46 46.73406 6.89189 14462 ft 285 kts 230°
2026-05-05 20:46 46.72161 6.86942 14093 ft 285 kts 230°
2026-05-05 20:47 46.70915 6.84694 13723 ft 285 kts 230°
2026-05-05 20:47 46.69669 6.82456 13324 ft 284 kts 230°
2026-05-05 20:47 46.68426 6.80229 12953 ft 282 kts 230°
2026-05-05 20:47 46.67188 6.78007 12584 ft 281 kts 230°
2026-05-05 20:48 46.65959 6.75802 12211 ft 279 kts 230°
2026-05-05 20:48 46.64732 6.73667 11846 ft 278 kts 228°
2026-05-05 20:48 46.63457 6.71570 11471 ft 276 kts 227°
2026-05-05 20:48 46.62170 6.69499 11099 ft 275 kts 227°
2026-05-05 20:49 46.60886 6.67444 10720 ft 274 kts 227°
2026-05-05 20:49 46.59604 6.65389 10337 ft 273 kts 227°
2026-05-05 20:49 46.58333 6.63344 9957 ft 272 kts 227°
2026-05-05 20:49 46.57076 6.61312 9657 ft 268 kts 227°
2026-05-05 20:50 46.55831 6.59293 9242 ft 267 kts 227°
2026-05-05 20:50 46.54595 6.57289 8826 ft 266 kts 227°
2026-05-05 20:50 46.53364 6.55298 8403 ft 265 kts 227°
2026-05-05 20:50 46.52142 6.53321 8025 ft 263 kts 227°
2026-05-05 20:51 46.50935 6.51371 7828 ft 253 kts 227°
2026-05-05 20:51 46.49787 6.49519 7735 ft 240 kts 227°
2026-05-05 20:51 46.48714 6.47787 7640 ft 228 kts 227°
2026-05-05 20:51 46.47685 6.46127 7538 ft 216 kts 227°
2026-05-05 20:52 46.46699 6.44541 7462 ft 207 kts 226°
2026-05-05 20:52 46.45680 6.43076 7151 ft 207 kts 222°
2026-05-05 20:52 46.44638 6.41638 6857 ft 206 kts 224°
2026-05-05 20:52 46.43629 6.40170 6582 ft 203 kts 225°
2026-05-05 20:53 46.42657 6.38733 6331 ft 196 kts 225°
2026-05-05 20:53 46.41715 6.37335 6071 ft 190 kts 225°
2026-05-05 20:53 46.40816 6.36002 5824 ft 180 kts 225°
2026-05-05 20:53 46.39964 6.34738 5584 ft 170 kts 225°
2026-05-05 20:54 46.39154 6.33538 5360 ft 164 kts 224°
2026-05-05 20:54 46.38357 6.32358 5148 ft 164 kts 224°
2026-05-05 20:54 46.37566 6.31188 4934 ft 165 kts 224°
2026-05-05 20:54 46.36765 6.30002 4710 ft 165 kts 224°
2026-05-05 20:55 46.35970 6.28826 4486 ft 159 kts 224°
2026-05-05 20:55 46.35206 6.27697 4281 ft 156 kts 224°
2026-05-05 20:55 46.34451 6.26581 4070 ft 155 kts 224°
2026-05-05 20:55 46.33700 6.25472 3867 ft 154 kts 224°
2026-05-05 20:56 46.32960 6.24378 3681 ft 145 kts 224°
2026-05-05 20:56 46.32279 6.23372 3479 ft 138 kts 224°
2026-05-05 20:56 46.31609 6.22385 3294 ft 136 kts 224°
2026-05-05 20:56 46.30950 6.21412 3117 ft 134 kts 224°
2026-05-05 20:57 46.30298 6.20452 2932 ft 134 kts 224°
2026-05-05 20:57 46.29646 6.19490 2741 ft 134 kts 225°
2026-05-05 20:57 46.28993 6.18528 2555 ft 134 kts 225°
2026-05-05 20:57 46.28335 6.17558 2371 ft 136 kts 226°
2026-05-05 20:58 46.27663 6.16570 2169 ft 139 kts 226°
2026-05-05 20:58 46.26978 6.15562 1970 ft 141 kts 226°
2026-05-05 20:58 46.26290 6.14554 1754 ft 142 kts 227°
2026-05-05 20:58 46.25605 6.13539 1534 ft 140 kts 226°
2026-05-05 20:59 46.24927 6.12543 1395 ft 138 kts 226°
2026-05-05 20:59 46.24310 6.11634 1373 ft 108 kts 225°
2026-05-05 20:59 46.23904 6.11040 1379 ft 61 kts 225°
2026-05-05 20:59 46.23692 6.10780 1380 ft 36 kts 207°
2026-05-05 21:00 46.23531 6.10702 1386 ft 15 kts 195°
2026-05-05 21:00 46.23440 6.10680 1391 ft 12 kts 168°
2026-05-05 21:00 46.23388 6.10749 1393 ft 9 kts 134°
2026-05-05 21:00 46.23347 6.10804 1400 ft 7 kts 141°
2026-05-05 21:01 46.23309 6.10798 1395 ft 5 kts 197°
2026-05-05 21:01 46.23279 6.10785 1397 ft 4 kts 196°
2026-05-05 21:01 46.23251 6.10774 1393 ft 6 kts 197°
2026-05-05 21:01 46.23206 6.10717 1404 ft 9 kts 226°
2026-05-05 21:02 46.23159 6.10648 1396 ft 10 kts 225°
2026-05-05 21:02 46.23132 6.10625 1395 ft 2 kts 168°
2026-05-05 21:02 46.23113 6.10650 1398 ft 4 kts 135°
2026-05-05 21:02 46.23103 6.10664 1393 ft 1 kts 135°
2026-05-05 21:03 46.23102 6.10665 1393 ft 0 kts 135°